Temperature
17 18 18 19 19 19 19 19 19 19 19 17 18 19 20 20 20 19 19 19 18 18 17 16 17 17 17 16 15 15 14 13 12 12 11 11 10 10 10 9 9 9 9 9
17 18 19 19 18 17 18 18 18 19 17 17 18 19 20 20 19 19 19 19 18 17 16 16 17 17 16 16 16 15 14 14 13 12 11 11 10 10 10 10 10 9 9 9
18 18 18 17 16 17 17 18 18 18 18 17 17 19 20 21 19 18 17 17 17 16 16 15 16 16 16 16 15 15 14 14 13 12 11 11 10 10 10 10 10 10 10 9
17 17 16 16 17 17 17 18 17 17 17 18 17 18 20 20 20 19 19 18 17 15 15 14 15 15 16 16 15 15 14 13 13 12 11 11 11 10 10 10 10 10 10 9
17 16 16 16 17 17 17 16 16 16 17 17 17 17 20 20 20 21 20 18 16 14 14 14 15 15 15 15 15 14 14 13 13 12 11 11 11 10 11 10 10 10 10 9
17 15 16 17 16 16 15 15 15 15 16 16 17 17 19 21 20 20 20 18 16 14 13 13 14 14 14 14 14 14 13 13 12 12 11 11 11 11 11 10 10 10 10 9
15 15 15 15 15 14 16 17 16 16 16 17 16 16 18 21 20 18 18 17 16 14 13 13 13 14 14 14 14 13 13 13 12 12 11 11 11 11 10 10 10 10 9 9
15 15 15 15 17 16 16 17 17 17 17 18 15 16 19 20 18 17 16 15 14 13 13 13 13 14 14 14 13 13 13 13 12 12 11 11 11 11 10 10 10 10 9 9
16 16 15 15 15 17 16 16 18 17 16 16 17 17 18 19 19 18 18 16 15 14 13 13 13 13 13 13 13 13 13 12 12 12 11 11 11 11 10 10 10 9 9 9
17 16 14 13 14 14 16 17 15 16 16 16 17 17 18 20 20 19 19 17 16 14 14 13 13 13 14 13 13 13 12 12 12 12 11 11 11 10 10 10 9 9 9 8
17 16 13 13 15 15 14 15 16 17 17 17 17 18 19 19 19 19 18 17 15 14 14 14 14 14 13 13 13 12 12 12 12 11 11 11 10 10 10 9 9 9 9 8
16 16 15 14 14 15 16 16 16 16 16 16 17 18 19 18 18 17 17 16 15 15 15 15 14 14 14 13 13 12 12 12 12 11 11 10 10 10 9 9 9 8 8 8
15 15 14 13 13 13 14 15 16 17 16 16 16 18 18 17 17 16 16 16 15 15 15 15 14 14 14 13 13 12 12 12 11 11 10 10 10 9 9 9 8 8 8 7
15 15 15 16 16 15 14 14 14 15 16 16 16 17 19 18 18 18 17 16 16 15 14 14 14 14 13 13 12 12 12 11 11 11 10 10 9 9 9 8 8 7 7 7
15 15 15 16 15 15 15 15 14 15 16 16 17 17 18 19 19 18 17 16 15 14 14 14 14 14 13 12 12 12 11 11 11 10 10 10 9 9 8 8 7 7 7 6
14 14 14 14 13 14 14 14 14 14 15 16 16 16 18 18 17 16 16 15 15 14 14 14 14 14 13 13 12 12 11 11 11 10 10 9 9 8 8 7 7 7 6 5
13 13 14 14 13 12 13 15 14 14 14 15 15 17 18 17 16 16 15 15 14 14 14 14 14 14 13 13 12 12 11 11 10 10 9 9 8 8 7 7 6 6 5 5
13 13 14 13 12 11 16 16 16 15 15 15 15 16 16 16 15 14 13 13 13 13 13 13 13 13 13 12 12 11 11 10 10 9 9 8 8 7 7 6 6 5 5 4
13 13 12 12 13 14 15 13 13 14 15 16 15 15 15 13 12 14 13 13 13 13 13 13 13 13 12 12 11 11 10 10 9 9 8 8 7 7 6 6 5 5 4 3
11 13 13 12 12 13 16 15 13 14 15 16 15 15 14 12 14 16 13 13 13 13 13 13 12 12 12 11 11 10 9 9 8 8 7 7 6 6 6 5 4 4 3 3
10 11 12 12 13 14 15 12 13 14 16 15 14 14 13 13 14 13 13 13 12 12 12 12 12 11 11 10 10 9 9 8 8 7 7 6 6 5 5 4 4 3 2 2
12 12 12 13 12 13 13 11 14 16 15 14 13 13 13 13 12 12 12 12 12 12 11 11 11 11 10 10 9 9 8 8 7 6 6 5 5 4 4 3 3 2 2 1
13 14 14 14 14 15 12 13 14 14 14 14 14 14 14 13 12 12 12 11 11 11 10 10 10 10 9 9 8 8 7 7 6 5 5 4 4 3 3 2 2 1 1 0
11 10 12 12 13 12 11 12 13 14 14 14 14 14 13 13 12 12 11 11 10 10 10 9 9 9 8 8 7 7 6 5 5 4 4 3 3 2 2 1 1 0 -0 -1
12 10 11 12 12 11 11 12 13 14 14 14 13 13 13 13 12 12 11 10 10 9 9 8 8 8 7 7 6 5 5 4 4 3 3 2 2 1 1 1 0 -0 -1 -1
10 11 12 14 13 13 14 14 13 13 13 13 13 13 12 12 12 11 10 10 9 9 8 8 7 7 6 5 5 4 4 3 3 2 2 1 1 1 0 -0 -1 -1 -1 -2
Wind_Speed
9 11 15 15 15 11 8 10 12 11 5 6 14 19 20 18 16 16 16 15 14 14 11 10 9 10 10 12 14 15 16 16 14 12 11 9 8 7 6 6 7 7 6 6
9 18 16 10 10 10 11 13 14 10 4 6 14 21 21 17 15 14 15 14 13 12 11 11 10 10 12 13 14 15 16 17 16 13 11 8 7 6 6 6 6 7 7 6
21 9 10 11 11 12 14 15 15 12 9 7 10 15 12 10 9 10 11 12 12 12 13 13 13 12 12 13 14 14 16 16 16 14 10 8 6 5 5 6 5 6 7 6
18 10 9 13 15 15 14 11 11 10 9 8 5 10 12 10 10 8 7 7 8 9 11 12 12 13 13 13 12 14 15 15 15 15 13 14 11 9 9 7 7 7 7 7
13 12 13 15 14 14 8 3 6 7 9 11 9 9 10 8 7 6 6 6 6 6 9 11 12 13 12 12 11 12 14 14 14 15 15 15 12 9 7 8 8 7 7 7
8 7 10 11 7 10 8 5 3 3 6 10 9 9 9 5 5 9 10 9 7 5 7 9 10 11 11 11 11 12 13 14 14 14 14 14 13 11 11 10 9 7 6 6
11 8 6 5 7 8 10 8 5 6 7 7 3 7 10 8 7 10 13 13 9 5 6 9 11 12 12 13 12 13 14 14 14 14 14 14 13 13 13 11 10 8 7 6
17 14 14 11 11 11 15 13 10 7 7 5 4 8 8 8 8 9 9 9 7 4 6 9 11 12 13 13 14 14 15 15 14 14 13 12 12 10 9 10 9 8 6 6
16 13 8 11 7 11 10 12 10 8 6 8 8 7 9 8 6 4 5 5 5 3 5 8 11 12 13 14 14 15 15 15 14 14 13 12 12 10 9 9 8 7 6 5
11 10 7 7 5 4 7 9 7 8 7 9 9 10 7 6 4 4 5 6 6 3 3 7 10 12 12 13 13 14 14 15 14 14 12 10 11 11 10 9 9 8 7 6
12 10 7 8 15 16 11 11 9 9 8 8 9 7 6 8 5 5 5 5 5 3 3 6 8 10 11 12 13 13 14 14 14 13 13 12 11 10 10 9 9 8 7 7
15 10 9 9 5 7 16 17 17 12 11 9 9 9 4 7 6 6 7 6 5 4 3 5 8 9 11 13 13 14 14 14 14 13 12 12 11 10 10 9 8 8 7 7
15 11 10 7 6 6 11 15 18 15 11 12 13 10 3 6 8 8 9 8 7 5 4 5 7 9 11 12 13 14 14 14 13 12 12 12 11 11 10 9 8 8 7 7
15 12 16 16 8 12 13 16 18 18 14 17 20 20 14 13 14 13 11 11 10 7 5 6 7 9 11 12 13 13 14 13 12 12 12 12 11 11 10 8 8 8 7 7
12 13 15 12 6 10 13 17 21 24 24 20 20 21 21 19 17 16 14 12 10 9 7 7 8 8 10 11 12 13 13 13 12 12 12 11 10 9 8 8 8 7 7 7
12 11 13 12 9 9 10 15 19 22 21 24 23 23 19 17 15 14 14 13 12 10 8 7 8 9 10 11 12 12 12 12 12 12 11 10 9 9 8 8 7 7 7 7
14 10 11 11 9 7 13 18 19 16 17 17 21 21 16 14 14 14 13 12 11 10 8 7 7 8 9 10 11 12 12 12 11 11 10 9 9 8 8 7 6 7 7 7
16 14 8 6 9 11 10 7 15 18 19 20 18 17 15 15 13 12 11 11 11 8 7 6 6 6 7 8 9 9 10 10 10 9 9 8 8 8 7 6 7 7 6 7
13 13 7 7 10 10 7 7 10 14 15 17 19 19 15 8 7 9 7 7 8 6 5 4 3 4 6 7 8 9 9 9 9 8 8 8 7 7 7 6 6 6 6 7
8 11 9 7 9 10 8 7 8 8 10 11 14 15 11 7 6 6 2 2 2 2 1 2 3 5 6 7 8 9 8 8 8 7 7 7 7 7 6 6 6 5 6 8
12 11 15 13 11 10 5 7 12 9 7 5 9 11 10 10 7 1 2 2 2 2 3 4 5 5 5 7 8 8 7 7 6 6 5 5 5 5 5 4 4 5 6 7
16 14 15 13 11 11 8 12 12 7 2 5 7 7 9 9 5 3 3 3 3 4 4 5 5 5 5 6 7 7 6 5 5 5 5 4 4 3 3 4 4 5 6 8
14 14 10 12 12 3 13 12 9 4 5 6 6 6 7 7 6 6 5 5 5 5 5 5 6 6 5 5 6 6 5 6 5 5 4 3 3 3 3 4 5 6 6 7
8 5 7 8 9 8 10 9 8 7 7 6 6 6 8 7 7 7 6 6 6 6 6 6 7 6 5 5 4 5 5 5 5 4 3 3 3 3 4 4 5 6 7 8
9 11 9 9 6 5 9 13 12 9 7 6 6 6 7 8 8 8 7 7 6 6 6 6 6 6 6 5 5 5 5 4 3 3 2 2 3 4 5 5 6 7 8 9
9 10 12 12 11 9 9 10 11 10 10 9 8 6 6 7 8 8 7 7 7 6 6 6 6 6 6 5 5 4 3 3 3 2 2 2 3 4 5 6 7 9 11 14
Wind_Direction
183 206 217 217 221 240 248 253 264 272 276 270 277 283 286 286 278 271 267 260 250 243 231 208 199 194 189 187 187 186 184 184 181 180 180 178 180 177 178 179 181 183 185 188
194 223 225 221 214 220 234 252 265 277 257 269 288 287 285 281 274 272 271 266 257 245 220 204 194 188 186 184 184 183 183 182 183 183 181 181 173 175 173 166 173 179 180 181
213 220 204 197 202 218 234 247 261 273 287 259 293 287 281 282 276 273 270 267 261 244 227 207 195 190 186 185 183 182 182 183 184 178 167 153 147 152 169 174 175 177 178 178
224 207 179 200 216 221 241 241 252 262 276 283 300 298 295 298 295 285 290 283 270 248 230 211 197 192 189 185 180 181 179 181 180 177 178 179 185 188 190 181 176 173 179 180
212 198 197 212 219 211 232 192 214 243 262 277 258 268 283 289 289 312 328 319 295 260 230 211 201 194 188 180 178 178 177 179 179 183 186 190 194 189 174 171 173 175 176 181
216 195 213 221 212 199 158 137 143 211 250 261 251 247 278 270 287 314 320 324 319 273 228 211 197 188 183 178 177 177 177 179 181 185 188 193 190 179 172 177 178 180 179 184
208 207 194 172 158 169 187 206 232 235 230 248 194 239 259 275 290 298 304 310 317 283 222 203 191 188 184 182 180 180 180 181 182 186 189 191 188 184 185 184 186 186 187 192
203 210 198 192 198 185 196 209 224 249 253 251 203 241 259 289 294 292 291 298 306 279 221 205 198 193 190 187 185 184 185 183 182 185 188 188 185 186 189 189 187 192 195 196
204 210 181 192 197 187 184 212 233 253 265 267 250 253 279 273 276 295 313 324 327 302 224 208 199 197 194 192 191 189 187 184 183 185 184 185 185 186 185 184 187 191 193 188
203 198 170 169 161 202 212 185 184 216 241 252 254 250 248 243 264 313 332 343 344 320 228 208 202 199 197 194 192 191 191 189 185 185 185 185 186 185 183 183 187 190 191 190
198 191 162 176 200 195 183 193 206 214 233 246 259 250 222 236 255 286 313 331 331 312 247 212 203 200 196 193 191 192 192 190 188 188 185 184 184 183 185 188 191 192 194 197
197 202 199 199 199 239 212 209 204 216 224 232 257 263 210 237 254 264 283 301 310 302 253 219 204 195 194 195 194 195 194 194 192 188 187 186 183 183 188 192 192 193 198 203
179 195 193 191 208 199 214 218 218 227 240 234 242 255 193 235 252 259 272 289 298 290 252 218 205 201 199 198 197 197 197 196 192 187 186 185 186 188 193 194 192 196 202 209
182 200 209 216 208 190 204 209 212 216 230 240 242 255 254 258 266 275 280 285 292 288 259 230 215 209 204 200 198 197 197 194 189 187 189 191 191 193 194 193 194 200 205 214
193 210 216 231 202 184 205 209 209 218 230 243 252 256 261 265 271 276 281 285 286 279 259 234 221 212 204 201 199 197 195 191 187 189 192 194 191 189 190 192 197 202 211 221
199 208 205 215 205 205 222 223 218 224 234 243 254 262 265 269 272 272 274 276 275 274 265 242 223 213 206 201 198 194 192 188 186 190 193 189 187 187 191 196 199 207 219 229
187 187 193 213 195 203 237 228 221 223 227 234 245 254 263 265 264 266 272 272 269 270 267 248 227 215 208 201 195 192 188 182 184 188 188 186 187 190 194 196 203 215 227 237
184 189 192 184 177 223 238 212 219 227 235 232 242 255 260 263 271 274 269 266 265 266 262 249 229 213 204 193 186 183 178 177 180 184 186 186 187 191 193 200 214 226 235 243
194 182 178 188 216 242 248 213 200 211 240 235 237 248 255 262 270 265 251 246 253 264 261 248 216 192 177 173 171 168 170 172 177 182 185 184 186 190 195 208 222 233 242 251
186 196 192 193 213 230 233 185 177 189 247 233 222 234 238 211 242 259 197 208 230 230 199 170 150 147 151 154 157 160 164 170 178 181 182 182 187 193 203 216 229 240 247 257
179 194 206 209 223 242 219 145 155 200 241 184 201 215 210 209 231 205 150 152 148 136 129 132 132 131 138 144 149 155 159 170 170 165 168 177 187 198 209 222 236 247 256 264
183 190 203 208 218 231 168 159 190 220 146 173 193 203 205 212 211 193 182 165 149 138 132 132 127 121 127 141 148 150 155 153 147 152 162 175 188 196 212 232 248 257 264 270
199 198 196 202 217 216 170 193 208 195 193 198 199 200 192 194 199 191 183 172 159 149 140 134 131 125 125 139 149 149 145 141 145 152 165 181 198 216 230 246 258 266 268 271
205 196 193 211 230 218 207 218 222 216 218 208 199 190 186 192 188 181 175 168 160 152 146 141 139 136 133 135 137 138 138 143 149 162 181 201 224 244 252 256 259 264 269 273
186 177 197 219 228 223 227 223 222 217 219 213 203 197 194 187 184 179 174 170 163 154 151 151 150 144 139 136 132 132 140 148 160 182 209 234 250 262 269 266 264 266 267 269
186 185 197 218 209 203 214 213 207 206 213 208 196 192 190 189 182 172 169 163 158 155 151 149 146 143 141 140 137 139 149 163 179 210 242 260 268 273 276 282 282 261 261 274
Height
1526 1527 1524 1524 1525 1526 1528 1529 1529 1527 1528 1530 1524 1517 1511 1510 1509 1508 1506 1505 1505 1505 1507 1508 1509 1511 1513 1515 1517 1520 1523 1527 1531 1534 1537 1540 1543 1545 1547 1548 1550 1551 1551 1551
1524 1521 1518 1522 1526 1528 1529 1529 1527 1525 1529 1529 1521 1514 1505 1503 1502 1502 1500 1499 1499 1500 1501 1502 1504 1506 1509 1511 1513 1516 1519 1523 1527 1531 1534 1538 1540 1542 1544 1546 1547 1548 1548 1549
1513 1514 1518 1523 1526 1528 1527 1526 1524 1525 1524 1525 1524 1508 1498 1496 1498 1497 1496 1495 1494 1494 1496 1497 1499 1502 1504 1507 1510 1513 1516 1520 1524 1527 1531 1534 1537 1539 1541 1542 1544 1545 1545 1546
1511 1514 1518 1519 1520 1522 1523 1522 1525 1527 1527 1520 1524 1516 1496 1492 1492 1492 1491 1490 1490 1490 1491 1492 1494 1497 1500 1503 1506 1510 1513 1517 1520 1524 1527 1530 1532 1535 1537 1539 1541 1542 1542 1543
1506 1511 1513 1514 1514 1518 1518 1523 1526 1526 1525 1523 1519 1519 1497 1490 1489 1486 1487 1487 1486 1486 1486 1487 1490 1493 1496 1500 1503 1507 1510 1514 1517 1520 1524 1527 1530 1533 1535 1536 1538 1539 1539 1539
1504 1509 1509 1509 1513 1517 1522 1524 1527 1527 1523 1522 1513 1515 1498 1486 1485 1484 1484 1484 1484 1483 1482 1484 1486 1489 1492 1496 1499 1503 1507 1510 1513 1517 1520 1523 1526 1529 1531 1533 1534 1535 1536 1536
1506 1507 1508 1510 1513 1518 1518 1520 1523 1521 1519 1512 1514 1514 1496 1482 1485 1485 1484 1482 1482 1480 1480 1481 1482 1485 1489 1492 1496 1499 1503 1506 1510 1513 1517 1520 1523 1526 1528 1529 1531 1532 1532 1532
1497 1500 1501 1504 1503 1508 1511 1511 1515 1516 1510 1506 1516 1508 1487 1482 1484 1484 1483 1481 1479 1478 1477 1478 1480 1482 1486 1489 1492 1496 1499 1502 1506 1510 1513 1516 1519 1522 1524 1526 1527 1528 1529 1529
1484 1490 1495 1499 1501 1502 1508 1508 1504 1508 1511 1512 1501 1495 1487 1481 1480 1480 1480 1479 1477 1476 1475 1476 1477 1480 1483 1486 1489 1492 1496 1499 1503 1506 1510 1513 1515 1518 1520 1522 1523 1524 1525 1525
1476 1485 1494 1498 1501 1502 1500 1500 1509 1509 1510 1507 1496 1494 1485 1476 1476 1477 1477 1477 1476 1474 1474 1474 1475 1477 1480 1483 1486 1489 1492 1496 1499 1503 1506 1509 1512 1514 1516 1518 1519 1520 1520 1520
1474 1482 1496 1497 1494 1493 1501 1502 1498 1498 1497 1498 1495 1486 1474 1473 1474 1475 1475 1475 1474 1473 1472 1472 1473 1475 1477 1480 1482 1485 1489 1492 1495 1499 1502 1505 1508 1510 1512 1513 1515 1516 1516 1516
1471 1475 1484 1488 1489 1489 1488 1488 1491 1496 1495 1495 1489 1481 1469 1472 1473 1474 1474 1473 1472 1471 1470 1470 1471 1472 1474 1476 1478 1481 1484 1488 1491 1495 1498 1501 1503 1505 1507 1509 1510 1511 1511 1511
1467 1472 1482 1488 1492 1492 1489 1485 1485 1485 1487 1487 1489 1478 1469 1471 1471 1472 1472 1471 1470 1469 1468 1467 1467 1468 1470 1472 1474 1477 1480 1483 1487 1490 1493 1496 1498 1501 1503 1504 1505 1506 1506 1506
1461 1462 1464 1466 1464 1471 1479 1482 1483 1483 1483 1479 1476 1470 1466 1466 1467 1467 1468 1468 1467 1466 1465 1464 1463 1464 1465 1467 1470 1472 1476 1479 1482 1486 1488 1491 1494 1496 1498 1499 1500 1501 1501 1501
1458 1459 1458 1459 1462 1466 1468 1471 1475 1475 1470 1470 1464 1464 1461 1461 1462 1463 1463 1463 1463 1461 1460 1460 1459 1460 1461 1463 1465 1468 1471 1474 1477 1481 1484 1486 1489 1491 1493 1494 1495 1495 1495 1495
1454 1455 1457 1462 1465 1466 1467 1465 1467 1468 1466 1464 1462 1459 1456 1457 1459 1459 1459 1458 1458 1457 1456 1455 1455 1456 1456 1458 1460 1463 1466 1469 1472 1476 1479 1481 1484 1486 1487 1489 1489 1490 1490 1489
1450 1454 1457 1458 1464 1468 1464 1456 1458 1460 1459 1458 1457 1452 1451 1453 1453 1454 1454 1453 1453 1452 1451 1451 1451 1451 1452 1454 1456 1458 1461 1464 1468 1471 1474 1476 1478 1480 1482 1483 1484 1484 1483 1483
1444 1449 1452 1457 1464 1469 1444 1443 1446 1449 1448 1450 1448 1446 1447 1448 1448 1448 1448 1448 1447 1447 1447 1447 1447 1447 1448 1450 1452 1454 1457 1460 1463 1466 1469 1471 1473 1475 1477 1478 1478 1478 1477 1476
1440 1445 1451 1455 1452 1446 1442 1442 1443 1445 1442 1440 1442 1441 1443 1445 1446 1443 1442 1442 1442 1442 1442 1443 1443 1444 1445 1446 1448 1450 1453 1456 1458 1461 1464 1466 1468 1470 1471 1472 1472 1472 1471 1469
1442 1440 1445 1449 1449 1447 1432 1433 1437 1441 1439 1432 1435 1436 1438 1442 1441 1438 1438 1438 1438 1439 1439 1440 1440 1441 1443 1444 1446 1448 1450 1452 1454 1457 1459 1461 1463 1465 1466 1466 1466 1466 1464 1462
1438 1440 1439 1440 1441 1430 1427 1432 1436 1440 1430 1427 1428 1430 1433 1435 1434 1435 1435 1435 1436 1436 1437 1438 1438 1439 1441 1442 1444 1445 1447 1449 1452 1454 1456 1457 1459 1460 1461 1461 1460 1459 1457 1455
1422 1427 1430 1432 1435 1431 1425 1430 1428 1422 1422 1423 1425 1427 1428 1429 1430 1432 1432 1433 1434 1435 1436 1436 1437 1438 1439 1441 1442 1444 1446 1447 1449 1451 1452 1453 1454 1455 1455 1455 1454 1453 1451 1448
1410 1410 1413 1416 1415 1413 1416 1417 1417 1419 1420 1421 1422 1424 1425 1426 1427 1429 1430 1431 1432 1433 1434 1435 1436 1437 1438 1440 1441 1442 1444 1445 1447 1448 1449 1449 1450 1450 1450 1449 1448 1446 1444 1441
1409 1411 1411 1412 1410 1411 1412 1412 1414 1415 1417 1418 1419 1421 1422 1423 1424 1426 1427 1429 1430 1431 1432 1434 1435 1436 1437 1438 1439 1441 1442 1443 1444 1445 1445 1445 1445 1445 1444 1443 1441 1439 1437 1434
1397 1405 1406 1405 1405 1408 1407 1408 1409 1411 1413 1415 1416 1418 1419 1420 1421 1423 1424 1426 1428 1429 1430 1432 1433 1434 1435 1436 1437 1438 1439 1440 1441 1441 1441 1441 1440 1439 1438 1436 1435 1432 1430 1428
1394 1395 1397 1395 1397 1400 1400 1402 1405 1407 1408 1410 1412 1414 1416 1417 1418 1420 1422 1424 1425 1427 1428 1430 1431 1432 1433 1434 1435 1436 1437 1437 1437 1437 1437 1436 1435 1434 1432 1429 1427 1424 1422 1419